Meteo Giornale » Osservazioni meteo Italia » Messina

ore: 04:55 - Osservazioni Meteo Messina
Lat. 38° 12' N Lon. 15° 33' E Alt. 59 metri s.l.m.

sereno Europe/Rome

26 °C

Sereno

Temp. 24 Ore

24 °C

30 °C

Nord

1.8 Km/h

Dew point 23 °C

Umidità 83 %

Visibilità  10 Km

Il sole sorge alle ore 06:15

Il sole tramonta alle ore 19:46

Data e Ora Cielo e Fenomeni T °C DP °C Um. % Pres. hPa Vis. km Vento km/h
Oggi h: 04:55 sereno Sereno 26 23 83 1016 10 N 1.8
Oggi h: 03:55 sereno Sereno 26 23 83 1016 10 N 5.5
Oggi h: 02:55 sereno Sereno 26 23 83 1016 10 N 3.7
Oggi h: 01:55 sereno Sereno 26 22 78 1016 10 N 3.7
Oggi h: 00:55 sereno Sereno 25 22 83 1016 10 N 0
Ieri h: 23:55 sereno Sereno 26 21 73 1016 10 N 1.8
Ieri h: 22:55 sereno Sereno 26 21 73 1016 10 N 0
Ieri h: 21:55 sereno Sereno 27 22 74 1016 10 N 3.7
Ieri h: 20:55 sereno Sereno 27 22 74 1016 10 N 5.5
Ieri h: 19:55 sereno Sereno 28 22 69 1015 10 S/SO 11.1
Ieri h: 18:55 poco_nuvoloso Poco Nuvoloso 29 22 66 1016 10 S/SO 9.3
Ieri h: 17:55 poco_nuvoloso Poco Nuvoloso 29 22 66 1016 10 S/SO 13
Ieri h: 16:55 poco_nuvoloso Poco Nuvoloso 30 21 58 1016 10 S 7.4
Ieri h: 15:55 poco_nuvoloso Poco Nuvoloso 30 23 66 1016 10 E 9.3
Ieri h: 14:55 poco_nuvoloso Poco Nuvoloso 29 24 74 1016 10 E 7.4
Ieri h: 13:55 nuvoloso Nuvoloso 30 24 70 1016 10 E/NE 11.1
Ieri h: 12:55 nuvoloso Nuvoloso 29 25 79 1016 10 E/NE 13
Ieri h: 11:55 nuvoloso Nuvoloso 29 25 79 1016 10 E 13
Ieri h: 10:55 poco_nuvoloso Poco Nuvoloso 29 24 74 1016 10 E/NE 16.7
Ieri h: 08:55 sereno Sereno 27 23 78 1015 10 E/NE 9.3
Ieri h: 07:55 sereno Sereno 26 21 73 1015 10 NE 7.4
Ieri h: 06:55 sereno Sereno 24 22 88 1015 10 N 1.8
Ieri h: 05:55 sereno Sereno 24 20 78 1015 10 N 1.8